History for Miami, FL

Saturday, January 5, 2013 — View Current Conditions

Jump to Data:

Date:
Airport Code:
Recently Viewed Airport Codes: KMIA
Daily Summary
  Actual Average Record
Temperature
Mean Temperature 75°F 68°F  
Max Temperature 82°F 76°F 85°F (1908)
Min Temperature 68°F 60°F 37°F (1919)
Degree Days
Heating Degree Days 0 2  
Month to date heating degree days 0 10  
Since 1 July heating degree days 16 47  
Cooling Degree Days 10 5  
Month to date cooling degree days 47 25  
Year to date cooling degree days 47 25  
Growing Degree Days 25 (Base 50)    
Moisture
Dew Point 67°F    
Average Humidity 80    
Maximum Humidity 97    
Minimum Humidity 62    
Precipitation
Precipitation 0.00 in 0.04 in 1.28 in (1931)
Month to date precipitation 0.01 0.25  
Year to date precipitation 0.01 0.25  
Snow
Snow 0.00 in in in ()
Month to date snowfall 0.0  
Since 1 July snowfall 0.0  
Snow Depth 0.00 in    
Sea Level Pressure
Sea Level Pressure 30.21 in    
Wind
Wind Speed 6 mph (NE)    
Max Wind Speed 14 mph    
Max Gust Speed 18 mph    
Visibility 9 miles    
Events      
T = Trace of Precipitation, MM = Missing Value Source: NWS Daily Summary

Show full METARS

(help) - Comma Delimited File

Hourly Observations

Time(EST) Temperature Dew Point Humidity Sea Level Pressure Visibility Wind Direction Wind Speed Gust Speed Precipitation Events Conditions
12:53 AM 73.0°F 69.1°F 87% 30.21 in 10.0 miles NNE 4.6 mph - N/A   Scattered Clouds
1:53 AM 71.1°F 68.0°F 90% 30.20 in 10.0 miles NNE 3.5 mph - N/A   Partly Cloudy
2:53 AM 71.1°F 68.0°F 90% 30.19 in 10.0 miles Calm Calm - N/A   Scattered Clouds
3:53 AM 70.0°F 68.0°F 93% 30.19 in 8.0 miles North 4.6 mph - N/A   Overcast
4:53 AM 70.0°F 66.9°F 90% 30.19 in 10.0 miles NNE 4.6 mph - N/A   Mostly Cloudy
5:53 AM 69.1°F 66.9°F 93% 30.21 in 10.0 miles North 3.5 mph - N/A   Mostly Cloudy
6:00 AM 69.8°F 66.2°F 88% 30.21 in 5.0 miles Variable 4.6 mph - N/A   Mist
6:53 AM 68.0°F 66.0°F 93% 30.22 in 6.0 miles NNE 4.6 mph - N/A   Mostly Cloudy
7:19 AM 68.0°F 66.2°F 94% 30.23 in 6.0 miles Variable 5.8 mph - N/A   Mostly Cloudy
7:53 AM 69.3°F 66.0°F 89% 30.24 in 7.0 miles NNE 4.6 mph - N/A   Mostly Cloudy
8:45 AM 71.6°F 66.2°F 83% 30.25 in 10.0 miles Variable 5.8 mph - N/A   Mostly Cloudy
8:53 AM 71.1°F 66.9°F 87% 30.25 in 10.0 miles NNE 4.6 mph - N/A   Mostly Cloudy
9:06 AM 71.6°F 66.2°F 83% 30.25 in 10.0 miles NNE 6.9 mph - N/A   Scattered Clouds
9:53 AM 75.0°F 68.0°F 79% 30.26 in 10.0 miles Variable 4.6 mph - N/A   Partly Cloudy
10:46 AM 77.0°F 68.0°F 74% 30.25 in 10.0 miles Variable 4.6 mph - N/A   Mostly Cloudy
10:53 AM 75.9°F 68.0°F 76% 30.25 in 10.0 miles NNE 6.9 mph - N/A   Mostly Cloudy
11:53 AM 78.1°F 68.0°F 71% 30.23 in 10.0 miles NE 6.9 mph - N/A   Mostly Cloudy
12:23 PM 78.8°F 68.0°F 69% 30.21 in 10.0 miles NE 6.9 mph - N/A   Scattered Clouds
12:53 PM 80.1°F 66.9°F 64% 30.19 in 10.0 miles East 8.1 mph - N/A   Mostly Cloudy
1:53 PM 80.1°F 68.0°F 67% 30.17 in 10.0 miles East 10.4 mph - N/A   Scattered Clouds
2:53 PM 79.0°F 68.0°F 69% 30.16 in 10.0 miles East 11.5 mph - N/A   Scattered Clouds
3:53 PM 79.0°F 66.9°F 66% 30.17 in 10.0 miles East 10.4 mph - N/A   Scattered Clouds
4:53 PM 78.1°F 66.9°F 68% 30.17 in 10.0 miles East 10.4 mph - N/A   Scattered Clouds
5:53 PM 75.2°F 66.2°F 73% 30.19 in 10.0 miles East 9.2 mph - N/A   Scattered Clouds
6:53 PM 75.0°F 66.9°F 76% 30.19 in 10.0 miles East 8.1 mph - N/A   Partly Cloudy
7:53 PM 75.0°F 68.0°F 79% 30.21 in 10.0 miles East 6.9 mph - N/A   Clear
8:53 PM 73.9°F 66.9°F 79% 30.23 in 10.0 miles NE 3.5 mph - N/A   Clear
9:53 PM 73.0°F 68.0°F 84% 30.23 in 10.0 miles North 4.6 mph - N/A   Partly Cloudy
10:53 PM 72.0°F 68.0°F 87% 30.22 in 10.0 miles North 4.6 mph - N/A   Partly Cloudy
11:53 PM 72.0°F 68.0°F 87% 30.21 in 10.0 miles Calm Calm - N/A   Partly Cloudy